Location: Narrabri
(30.3170°S, 149.7830°E)
Time: 22:06:18
(UTC+10:00)

ISS - Visible Passes

Search period start: 24 May 2018 00:00
Search period end: 03 June 2018 00:00
Orbit: 402 x 407 km, 51.6° (Epoch: 25 May)

Date Brightness Start Highest point End Pass type
(mag) Time Alt. Az. Time Alt. Az. Time Alt. Az.
25 May -1.2 05:55:44 10° N 05:58:28 24° NE 06:01:15 10° ESE visible
26 May -0.4 05:05:24 10° NE 05:06:28 11° NE 05:07:33 10° ENE visible
27 May -3.7 05:47:06 10° NW 05:50:24 81° NE 05:53:43 10° SE visible
28 May -2.1 04:57:27 28° NNE 04:58:16 33° NE 05:01:17 10° ESE visible
29 May -3.0 05:41:39 28° WSW 05:42:26 32° SW 05:45:29 10° SSE visible
30 May -1.3 04:52:38 17° SE 04:52:38 17° SE 04:53:29 10° SE visible
31 May -1.4 05:35:58 12° S 05:35:58 12° S 05:36:30 10° S visible
